Flag for U.S.A. Weather past 2 weeks in Farmington, New Mexico, U.S.A.

Now
31 °F

Clear.


Feels Like: 26 °F
Forecast: 23 / 39 °F
Wind: 5 mph from Southwest

Location: Four Corners Regional Airport

Current Time: Dec 18, 2014 at 9:59:32 PM

Latest Report: Dec 18, 2014 at 8:53 PM


Visibility: 10 mi

Pressure: 30.21 "Hg

Humidity: 85%

Dew point: 27 °F

Location of FarmingtonLocation

Historic Weather in Farmington — Graph

°F

Farmington temperature yesterday

Maximum temperature yesterday: 43 °F (at 1:53 PM)
Minimum temperature yesterday: 32 °F (at 6:53 AM)
Average temperature yesterday: 36 °F

Past Weeks' High & Low Weather Summary

 TemperatureHumidityPressure
High56 °F (Dec 12, 1:53 PM)100% (Dec 9, 8:53 PM)30.46 "Hg (Dec 9, 8:53 PM)
Low24 °F (Dec 15, 6:53 AM)38% (Dec 11, 1:53 PM)29.86 "Hg (Dec 13, 12:53 PM)
Average38 °F78%30.19 "Hg
* Reported Dec 3 7:53 PM — Dec 18 7:53 PM, Farmington, Weather by CustomWeather, © 2014

Note: Actual official high and low records may vary slightly from our data, if they occured in-between our weather recording intervals... More about our weather records

Advertising

Farmington weather history for previous 24 hours

 ConditionsComfort  
Time TempWeatherWind HumidityBarometerVisibility
7:53 PM
Dec 18
31 °FClear.5 mph85%30.20 "Hg10 mi
6:53 PM32 °FClear.5 mph82%30.18 "Hg10 mi
5:53 PM34 °FPassing clouds.6 mph76%30.16 "Hg10 mi
4:53 PM37 °FSunny.6 mph65%30.13 "Hg10 mi
3:53 PM40 °FPassing clouds.7 mph63%30.12 "Hg10 mi
2:53 PM39 °FPassing clouds.8 mph70%30.11 "Hg10 mi
1:53 PM40 °FScattered clouds.7 mph73%30.11 "Hg10 mi
12:53 PM39 °FScattered clouds.7 mph73%30.13 "Hg10 mi
11:53 AM38 °FPartly sunny.7 mph83%30.16 "Hg10 mi
10:53 AM37 °FBroken clouds.7 mph86%30.18 "Hg10 mi
9:53 AM37 °FSunny.No wind86%30.17 "Hg10 mi
8:53 AM35 °FFog.3 mph88%30.17 "Hg5 mi
7:53 AM33 °FFog.3 mph92%30.17 "Hg3 mi
6:53 AM33 °FFog.5 mph96%30.15 "Hg4 mi
5:53 AM32 °FIce fog.3 mph96%30.14 "Hg4 mi
4:53 AM33 °FOvercast.No wind96%30.13 "Hg9 mi
3:53 AM32 °FPassing clouds.3 mph96%30.12 "Hg7 mi
2:53 AM34 °FMostly cloudy.No wind92%30.11 "Hg10 mi
1:53 AM34 °FMostly cloudy.3 mph97%30.10 "Hg10 mi
1:04 AM34 °FMostly cloudy.3 mph92%30.09 "Hg10 mi
11:53 PM
Dec 17
34 °FMostly cloudy.3 mph97%30.10 "Hg10 mi
10:53 PM34 °FMostly cloudy.5 mph97%30.10 "Hg10 mi
9:53 PM34 °FLight rain. Mostly cloudy.6 mph97%30.09 "Hg9 mi
Weather by CustomWeather, © 2014

See weather overviewHow to use our weather pages